Location: SE Lincoln, NE
(40.7805°N, 96.6275°W)
Time: 04:39:13
(UTC-05:00)

Spot 2 Rocket - Pass Details

Date: 15 May 2021
Orbit: 758 x 771 km, 98.5° (Epoch: 20 June)

Event Time Altitude Azimuth Distance (km) Brightness Sun altitude
Exits shadow 22:53:29 41° 173° (S) 1,100 3.9 -20.8°
Maximum altitude 22:55:19 83° 256° (WSW) 770 3.4 -21.0°
Drops below altitude 10° 23:00:23 10° 345° (NNW) 2,296 6.9 -21.5°
Sets 23:02:42 0° 346° (NNW) 3,225 7.9 -21.8°
